Location: Pine Mountain Observatory
(43.7910°N, 120.9377°W)
Time: 01:44:25
(UTC-07:00)

Cosmos 1867 - Visible Passes

Search period start: 21 June 2018 00:00
Search period end: 01 July 2018 00:00
Orbit: 775 x 801 km, 65.0° (Epoch: 20 June)

Date Brightness Start Highest point End Pass type
(mag) Time Alt. Az. Time Alt. Az. Time Alt. Az.
21 Jun 5.6 01:29:59 13° ESE 01:30:46 14° ESE 01:33:26 10° ENE visible
21 Jun 3.5 03:10:39 29° SSW 03:13:34 89° NW 03:19:04 10° NE visible
22 Jun 3.6 02:39:48 37° SSW 02:41:56 69° ESE 02:47:22 10° NE visible
22 Jun 5.2 04:21:36 10° W 04:26:01 25° NW 04:30:29 10° NNE visible
23 Jun 3.9 02:08:55 41° SSE 02:10:20 51° ESE 02:15:37 10° NE visible
23 Jun 4.9 03:49:34 11° WSW 03:54:10 30° NW 03:58:59 10° NNE visible
24 Jun 4.3 01:37:59 36° SE 01:38:46 38° ESE 01:43:46 10° NE visible
24 Jun 4.6 03:18:38 17° WSW 03:22:21 38° NW 03:27:28 10° NNE visible
25 Jun 4.7 01:07:01 28° ESE 01:07:14 28° ESE 01:11:49 10° NE visible
25 Jun 4.2 02:47:40 25° WSW 02:50:34 49° NW 02:55:54 10° NNE visible
25 Jun 5.9 04:32:51 10° WNW 04:35:31 14° NNW 04:38:12 10° N visible
26 Jun 5.1 00:36:00 20° ESE 00:36:00 20° ESE 00:39:42 10° ENE visible
26 Jun 3.8 02:16:39 36° WSW 02:18:51 64° NW 02:24:18 10° NNE visible
26 Jun 5.9 04:00:11 10° WNW 04:03:31 16° NNW 04:06:53 10° N visible
27 Jun 5.5 00:04:56 15° E 00:04:56 15° E 00:07:15 10° ENE visible
27 Jun 3.5 01:45:35 48° SW 01:47:09 84° NW 01:52:40 10° NNE visible
27 Jun 5.7 03:27:41 10° W 03:31:34 19° NW 03:35:29 10° N visible
28 Jun 3.5 01:14:27 57° S 01:15:30 74° ESE 01:20:59 10° NE visible
28 Jun 5.4 02:55:19 10° W 02:59:40 24° NW 03:04:02 10° NNE visible
29 Jun 3.7 00:43:17 51° SE 00:43:54 54° ESE 00:49:14 10° NE visible
29 Jun 5.1 02:23:54 14° W 02:27:47 29° NW 02:32:33 10° NNE visible
30 Jun 4.1 00:12:02 40° ESE 00:12:19 40° ESE 00:17:24 10° NE visible
30 Jun 4.8 01:52:40 19° WSW 01:55:58 36° NW 02:01:01 10° NNE visible
30 Jun 6.2 03:39:38 10° NW 03:41:13 11° NNW 03:42:48 10° N visible
30 Jun 4.5 23:40:42 30° ESE 23:40:48 30° ESE 23:45:29 10° NE visible
